TimeCDT,TemperatureF,Dew PointF,Humidity,Sea Level PressureIn,VisibilityMPH,Wind Direction,Wind SpeedMPH,Gust SpeedMPH,PrecipitationIn,Events,Conditions,WindDirDegrees,DateUTC
12:11 AM,62.6,57.2,82,29.89,9.0,ENE,21.9,29.9,0.00,Rain-Thunderstorm,Light Rain,60,2013-05-26 05:11:00
12:19 AM,62.6,57.2,82,29.87,10.0,East,19.6,27.6,0.00,Rain-Thunderstorm,Light Rain,90,2013-05-26 05:19:00
12:37 AM,62.6,57.2,82,29.88,10.0,East,19.6,26.5,0.00,,Overcast,80,2013-05-26 05:37:00
12:53 AM,60.1,57.9,93,29.86,10.0,East,20.7,27.6,0.00,,Overcast,80,2013-05-26 05:53:00
1:53 AM,60.1,55.9,86,29.85,10.0,East,17.3,28.8,N/A,,Overcast,90,2013-05-26 06:53:00
2:24 AM,57.2,55.4,94,29.86,10.0,East,18.4,27.6,N/A,,Overcast,100,2013-05-26 07:24:00
2:53 AM,57.0,54.0,89,29.84,10.0,East,21.9,-,N/A,,Overcast,100,2013-05-26 07:53:00
3:17 AM,55.4,53.6,94,29.84,10.0,ESE,20.7,26.5,0.00,Rain-Thunderstorm,Light Rain,120,2013-05-26 08:17:00
3:32 AM,55.4,53.6,94,29.85,10.0,ESE,18.4,25.3,0.00,,Overcast,110,2013-05-26 08:32:00
3:53 AM,55.9,53.1,90,29.83,10.0,ESE,20.7,26.5,0.01,,Overcast,120,2013-05-26 08:53:00
4:19 AM,57.2,53.6,88,30.00,10.0,North,19.6,35.7,N/A,,Overcast,360,2013-05-26 09:19:00
4:31 AM,55.4,53.6,94,29.99,4.0,NNW,4.6,-,0.01,Rain-Thunderstorm,Thunderstorms and Rain,340,2013-05-26 09:31:00
4:38 AM,55.4,53.6,94,29.98,4.0,NNE,21.9,27.6,0.09,Rain-Thunderstorm,Heavy Thunderstorms and Rain,30,2013-05-26 09:38:00
4:46 AM,55.4,53.6,94,29.97,3.0,East,18.4,31.1,0.13,Rain-Thunderstorm,Rain,80,2013-05-26 09:46:00
4:53 AM,55.0,53.1,93,29.93,8.0,East,17.3,26.5,0.14,Rain-Thunderstorm,Light Thunderstorms and Rain,90,2013-05-26 09:53:00
5:00 AM,55.4,53.6,94,29.94,10.0,East,19.6,27.6,0.00,Rain-Thunderstorm,Light Thunderstorms and Rain,100,2013-05-26 10:00:00
5:20 AM,55.4,53.6,94,29.91,10.0,ESE,20.7,27.6,0.00,,Overcast,110,2013-05-26 10:20:00
5:53 AM,55.0,54.0,96,29.86,10.0,SE,19.6,26.5,0.00,,Mostly Cloudy,130,2013-05-26 10:53:00
6:53 AM,57.0,55.0,93,29.86,10.0,SE,19.6,23.0,0.01,,Mostly Cloudy,130,2013-05-26 11:53:00
7:36 AM,59.0,55.4,88,29.88,10.0,SE,16.1,-,N/A,,Mostly Cloudy,130,2013-05-26 12:36:00
7:53 AM,60.1,57.0,90,29.92,10.0,ENE,8.1,23.0,N/A,,Overcast,60,2013-05-26 12:53:00
8:03 AM,55.4,53.6,94,29.98,10.0,NNW,32.2,42.6,N/A,,Overcast,340,2013-05-26 13:03:00
8:39 AM,57.2,55.4,94,29.99,10.0,NE,10.4,-,N/A,,Overcast,40,2013-05-26 13:39:00
8:53 AM,57.9,55.0,90,29.96,10.0,ENE,12.7,-,N/A,,Overcast,60,2013-05-26 13:53:00
9:23 AM,57.2,53.6,88,29.96,10.0,East,11.5,-,N/A,,Overcast,80,2013-05-26 14:23:00
9:53 AM,60.1,55.0,83,29.94,10.0,East,11.5,-,N/A,,Overcast,80,2013-05-26 14:53:00
10:53 AM,62.1,55.9,80,29.92,10.0,East,16.1,-,N/A,,Overcast,100,2013-05-26 15:53:00
11:53 AM,66.9,57.0,70,29.88,10.0,SE,20.7,29.9,N/A,,Mostly Cloudy,130,2013-05-26 16:53:00
12:53 PM,69.1,57.9,68,29.86,10.0,SE,23.0,28.8,N/A,,Partly Cloudy,130,2013-05-26 17:53:00
1:40 PM,69.8,60.8,73,29.90,10.0,SSE,18.4,23.0,N/A,,Overcast,160,2013-05-26 18:40:00
1:53 PM,66.9,59.0,76,29.87,10.0,SSE,18.4,24.2,N/A,,Overcast,150,2013-05-26 18:53:00
2:53 PM,64.9,59.0,81,29.88,10.0,SE,15.0,-,N/A,,Overcast,140,2013-05-26 19:53:00
3:45 PM,69.8,60.8,73,29.88,10.0,East,12.7,-,N/A,,Scattered Clouds,90,2013-05-26 20:45:00
3:53 PM,69.1,61.0,75,29.87,10.0,ESE,11.5,-,N/A,,Scattered Clouds,110,2013-05-26 20:53:00
4:17 PM,66.2,60.8,83,29.91,10.0,ESE,10.4,-,N/A,,Mostly Cloudy,120,2013-05-26 21:17:00
4:53 PM,64.0,59.0,84,29.90,10.0,SE,9.2,-,N/A,,Overcast,130,2013-05-26 21:53:00
5:35 PM,64.4,60.8,88,29.88,10.0,East,11.5,-,N/A,,Overcast,100,2013-05-26 22:35:00
5:53 PM,66.0,61.0,84,29.86,10.0,East,12.7,-,N/A,,Mostly Cloudy,100,2013-05-26 22:53:00
6:04 PM,64.4,60.8,88,29.89,10.0,ESE,12.7,-,N/A,,Mostly Cloudy,120,2013-05-26 23:04:00
6:53 PM,64.0,60.1,87,29.86,10.0,ESE,12.7,-,N/A,,Overcast,110,2013-05-26 23:53:00
7:34 PM,62.6,59.0,88,29.85,10.0,East,25.3,31.1,N/A,,Overcast,80,2013-05-27 00:34:00
7:48 PM,60.8,57.2,88,29.87,10.0,East,19.6,31.1,N/A,,Overcast,80,2013-05-27 00:48:00
7:53 PM,61.0,57.9,90,29.86,10.0,ENE,18.4,-,N/A,,Overcast,70,2013-05-27 00:53:00
8:53 PM,57.9,57.0,97,29.88,5.0,East,17.3,26.5,N/A,,Overcast,80,2013-05-27 01:53:00
9:53 PM,57.0,55.9,96,29.89,6.0,East,13.8,-,N/A,,Overcast,80,2013-05-27 02:53:00
10:53 PM,57.0,55.0,93,29.88,5.0,ESE,13.8,-,N/A,,Overcast,110,2013-05-27 03:53:00
11:06 PM,55.4,55.4,100,29.90,2.5,ESE,11.5,-,N/A,,Overcast,110,2013-05-27 04:06:00
11:13 PM,55.4,55.4,100,29.90,3.0,East,10.4,-,N/A,,Overcast,100,2013-05-27 04:13:00
11:35 PM,55.4,55.4,100,29.90,2.5,East,9.2,-,N/A,,Overcast,100,2013-05-27 04:35:00
11:53 PM,55.9,55.0,97,29.89,4.0,East,8.1,-,N/A,,Overcast,100,2013-05-27 04:53:00